Dewpoint
63 64 66 68 70 70 71 71 71 71 71 70 69 68 67 69 69 67 66 64 61 60 62 63 61 65 65 65 67 68 68 67 68 68 68 67 66 66 67 68 68 67 68
63 63 64 66 68 69 70 70 70 69 70 70 69 68 67 69 67 66 65 62 60 57 58 61 61 66 65 65 66 66 67 68 67 67 67 67 66 66 67 65 64 66 68
62 62 64 65 66 67 68 69 70 69 69 69 69 68 68 68 66 65 64 62 61 56 55 61 62 65 65 64 63 65 65 67 67 67 67 66 66 66 66 64 66 67 66
61 64 65 66 66 66 67 68 69 68 68 68 69 69 68 67 67 65 62 62 61 60 60 61 65 65 66 65 63 63 65 65 67 67 67 66 65 67 65 64 66 67 66
63 65 66 65 64 64 67 68 68 68 67 68 67 69 68 67 67 67 63 63 61 62 62 63 63 64 63 62 65 64 62 64 65 67 65 63 63 66 65 64 65 67 66
64 66 66 66 66 65 66 67 67 66 67 67 68 68 67 67 66 65 64 63 62 62 64 65 64 62 61 61 62 65 64 62 65 66 64 63 62 65 65 65 64 64 65
65 65 66 66 65 65 65 64 65 65 66 67 68 67 68 66 64 62 61 62 63 65 64 63 61 58 59 62 64 64 66 65 65 64 63 62 63 66 66 65 65 64 64
64 64 65 65 63 63 63 62 62 63 65 66 67 67 66 67 66 66 66 65 65 64 62 61 60 59 60 62 62 64 65 66 66 65 64 61 59 65 66 66 66 66 65
64 65 64 64 63 61 60 60 61 62 64 65 66 65 65 64 64 64 64 63 63 63 63 64 63 63 64 64 64 64 65 65 65 64 62 60 60 64 65 66 67 66 65
58 61 65 65 63 61 58 58 59 61 63 65 65 66 64 62 62 62 61 61 62 61 60 60 61 60 61 62 62 62 63 62 62 62 61 60 64 64 64 65 66 67 66
55 60 61 62 64 62 59 59 60 61 62 63 63 64 64 62 61 58 60 60 60 61 59 57 58 60 60 60 60 59 60 60 60 60 60 60 62 62 64 64 65 66 65
48 53 55 57 60 60 60 61 61 62 62 62 61 61 61 60 59 58 59 59 59 59 59 59 58 57 56 55 56 59 59 59 57 55 58 60 61 60 62 64 65 65 65
44 45 51 57 59 58 58 61 62 60 61 60 59 59 57 58 58 59 59 59 59 57 58 58 58 58 56 56 55 55 57 58 58 58 57 58 61 61 61 62 63 65 65
42 44 50 54 56 56 54 56 56 58 56 58 57 59 58 58 57 57 55 57 56 57 57 56 57 56 54 55 55 54 54 54 56 57 57 58 59 61 58 60 62 64 65
37 41 48 52 54 55 52 51 49 48 48 48 50 50 54 57 56 56 56 55 56 56 57 56 57 56 55 55 56 55 55 55 54 56 58 58 58 58 59 59 59 61 63
33 39 44 47 50 51 53 50 48 45 44 45 48 50 52 52 52 51 54 54 53 52 53 53 52 52 55 57 57 56 56 56 55 55 55 57 57 58 58 58 58 59 61
33 37 39 40 47 46 51 50 47 44 43 44 47 48 48 49 46 45 44 46 47 50 52 51 51 50 50 52 52 55 55 56 57 57 57 56 56 57 57 57 57 57 59
33 35 34 34 42 43 47 47 46 39 38 43 47 47 46 46 47 46 45 43 39 41 44 37 39 39 41 41 42 45 51 49 48 52 58 59 58 57 57 57 57 57 56
32 32 34 26 31 37 38 39 39 39 39 42 48 46 45 43 40 39 43 40 37 39 38 37 36 37 35 36 35 36 35 35 40 43 48 56 58 58 57 57 57 58 57
31 31 33 31 29 35 37 36 37 36 35 39 45 45 43 41 37 35 40 40 37 37 39 36 35 37 37 35 37 35 34 35 39 41 47 54 55 58 58 57 57 57 57
31 29 29 30 32 33 32 33 32 32 34 36 36 40 41 39 35 34 35 39 38 37 36 36 37 34 33 36 34 34 33 33 34 34 41 49 54 57 58 59 58 57 55
30 31 30 30 31 32 32 33 32 31 32 33 35 37 39 39 36 35 34 33 34 33 33 33 38 35 36 35 35 34 31 32 32 35 35 37 38 45 42 50 58 59 57
33 32 32 32 31 33 32 32 33 34 35 32 32 36 37 36 37 35 35 35 35 35 33 37 34 32 33 37 35 35 33 32 34 34 35 35 36 37 39 43 53 50 49
34 35 34 33 34 35 35 31 30 30 30 29 29 30 35 37 37 37 35 37 37 37 37 39 38 37 38 36 38 37 37 37 36 34 36 36 36 36 37 42 50 51 54
34 37 36 35 35 35 36 35 32 30 32 31 31 31 34 38 39 37 37 38 37 35 34 33 33 31 34 35 36 37 37 37 38 36 34 35 37 36 37 38 43 49 51
36 37 38 36 35 36 36 36 35 33 31 32 33 33 34 33 32 32 31 31 30 28 28 29 28 27 26 30 33 34 34 34 33 33 33 33 33 33 32 33 36 43 46
Wind_Speed
7 13 10 9 11 14 15 16 17 13 7 9 9 9 10 16 24 25 24 28 26 22 17 19 22 20 15 5 2 2 4 9 10 10 12 11 12 12 10 10 8 14 14
12 11 12 12 13 15 14 15 15 19 17 9 9 9 12 20 20 20 18 21 23 10 7 11 17 17 17 13 2 0 2 4 4 5 7 8 8 7 9 8 3 12 13
15 10 12 12 11 11 13 14 18 18 18 17 11 12 20 20 20 20 18 15 12 16 3 6 7 18 12 15 7 1 2 1 0 2 1 2 3 4 7 7 6 17 15
16 12 11 13 14 13 13 16 16 17 18 18 17 17 18 18 19 19 17 14 14 11 6 2 10 4 15 17 21 7 4 4 3 5 5 7 6 7 7 8 9 13 15
15 15 14 13 11 11 13 15 16 16 16 17 15 15 14 13 13 11 8 9 8 4 5 9 8 9 13 6 14 21 13 8 6 7 10 8 9 14 12 10 9 10 14
16 15 14 13 12 11 13 15 15 15 14 15 15 14 11 10 9 8 8 10 8 7 7 7 9 5 15 23 12 9 24 17 12 9 13 10 9 12 13 12 11 10 11
18 15 14 14 12 11 11 10 12 12 12 13 13 12 10 9 7 6 7 11 11 8 9 9 9 12 14 15 12 9 26 19 11 11 12 5 7 19 17 16 13 13 12
20 16 14 14 13 11 9 9 7 9 10 11 12 12 10 11 9 9 10 8 5 6 5 6 10 10 6 9 9 18 18 12 10 11 10 6 8 18 17 16 17 14 14
18 17 15 14 13 12 9 7 6 6 7 7 9 11 11 12 12 14 12 10 11 9 8 6 6 9 8 10 10 7 7 8 9 9 7 6 10 19 16 16 16 17 16
13 14 11 10 11 12 10 8 8 6 8 7 8 10 11 10 10 12 11 9 7 9 9 9 8 9 6 6 6 6 6 6 8 9 4 4 6 15 14 14 13 17 20
15 12 10 11 9 11 11 11 12 10 11 11 10 11 13 8 8 8 9 7 6 7 8 6 4 6 5 3 4 5 6 7 9 10 7 5 5 9 14 16 17 18 19
15 14 10 5 5 3 1 10 12 11 11 12 11 11 8 10 9 8 7 6 5 2 2 3 4 3 3 3 5 8 6 5 6 9 12 13 11 13 15 17 19 22 22
14 12 11 8 4 5 3 7 7 8 11 9 11 11 9 8 6 7 7 5 5 4 3 2 4 6 7 6 6 5 6 6 6 9 8 11 17 19 18 17 19 20 24
14 13 11 9 4 3 9 8 5 8 10 10 9 9 8 9 6 6 6 4 2 2 4 3 5 5 4 7 9 11 12 10 8 9 10 7 8 14 17 18 17 19 23
10 12 12 11 6 2 5 7 6 7 7 5 6 4 5 9 8 7 7 6 5 4 1 4 5 5 6 8 10 12 14 15 13 10 8 14 11 11 12 16 19 19 22
6 13 13 10 9 6 4 6 6 6 4 4 6 4 4 6 5 5 6 7 5 5 2 2 4 6 6 7 9 11 14 11 10 11 13 11 17 20 17 18 19 21 22
7 12 12 7 8 6 7 7 6 6 5 6 7 5 5 4 3 3 5 7 4 2 5 2 2 3 6 6 8 8 10 11 12 14 15 15 15 18 19 20 22 23 22
13 14 11 7 8 5 5 6 5 10 8 8 9 8 4 2 3 2 5 5 2 2 3 1 3 4 6 7 8 9 8 9 13 14 16 16 16 17 17 25 23 24 24
16 14 10 8 6 4 3 5 4 10 7 8 12 11 9 6 3 2 7 5 3 3 3 2 3 4 9 11 12 10 9 12 13 13 15 15 17 19 17 19 25 28 28
14 12 10 7 6 4 3 4 1 3 6 4 12 14 14 10 8 5 5 8 7 5 5 2 2 4 4 11 13 14 14 16 16 14 15 16 14 16 20 21 18 22 26
11 9 5 3 5 6 6 4 6 8 9 9 12 11 16 14 13 10 6 9 8 4 5 4 3 4 7 6 9 13 11 15 15 18 12 11 13 16 20 21 20 17 16
8 7 6 9 10 11 11 9 9 8 13 14 13 12 18 16 16 14 12 10 6 6 2 2 2 3 4 6 8 9 11 16 13 16 18 17 15 9 13 13 16 16 15
10 12 12 13 15 15 19 14 12 10 8 8 6 6 15 17 18 16 12 10 9 6 5 3 3 5 9 5 5 6 13 12 17 13 16 19 18 17 15 14 10 8 11
15 15 15 14 13 13 15 20 21 20 19 18 16 13 17 17 18 16 14 9 6 4 3 4 7 6 5 11 10 10 11 13 15 23 10 14 19 18 18 14 13 14 9
4 14 17 17 16 17 14 16 22 22 20 16 14 12 7 6 12 6 6 10 11 11 10 10 10 12 9 11 13 11 12 14 13 16 23 17 15 18 19 18 13 11 10
2 6 13 16 19 19 20 21 22 26 25 19 14 11 10 11 12 13 14 14 12 10 9 9 12 15 16 17 16 14 14 13 15 16 20 18 17 13 18 20 19 16 12
Wind_Direction
64 75 76 59 48 49 49 46 53 56 97 103 104 117 114 94 99 97 87 79 65 44 5 353 338 324 304 307 59 79 111 116 123 131 136 142 147 148 124 99 131 129 133
105 85 75 57 50 48 47 47 60 58 62 102 115 121 117 103 104 102 103 117 115 80 1 312 324 302 305 299 290 96 100 94 107 134 147 144 139 123 98 90 102 140 146
111 103 85 78 71 65 56 61 63 62 65 69 78 119 122 130 132 136 141 153 132 145 185 294 311 318 311 304 290 268 306 35 152 257 225 151 149 131 116 105 100 142 152
115 106 90 74 64 63 66 67 67 67 67 69 81 108 129 144 157 162 170 161 142 162 170 135 44 178 53 330 316 291 244 229 231 247 248 234 193 179 156 136 122 148 153
108 97 85 78 81 85 84 85 78 72 66 71 80 108 133 153 177 188 170 148 154 148 167 192 83 94 106 315 329 322 284 237 214 246 255 256 228 187 170 162 149 146 152
108 105 110 103 90 81 76 81 85 82 79 78 83 92 125 168 184 201 187 178 190 166 230 183 183 166 171 179 164 304 288 257 214 222 255 291 198 183 167 174 173 168 166
124 124 119 120 112 101 94 82 84 87 88 88 89 95 111 159 165 173 184 188 193 194 167 187 207 194 191 209 189 194 246 242 235 226 245 298 230 165 175 180 179 181 182
139 138 140 130 121 111 101 93 80 79 78 81 92 98 94 95 97 94 93 94 142 182 188 198 201 218 264 229 215 234 231 228 223 255 268 253 262 181 180 181 183 181 175
152 147 150 143 134 121 111 106 98 91 90 88 92 99 101 108 100 95 94 96 110 112 113 145 185 207 203 217 216 197 206 222 231 239 274 292 277 186 186 187 191 193 184
96 121 150 145 139 140 137 138 128 127 121 123 114 114 117 118 119 114 110 109 114 114 115 119 138 157 178 184 203 212 225 245 249 252 273 252 239 178 188 192 199 195 186
106 96 80 104 161 168 159 163 138 138 137 141 143 144 147 145 127 109 112 107 100 113 107 94 106 147 179 215 229 259 286 284 288 279 237 204 229 219 196 192 191 185 183
113 106 102 75 54 6 163 168 144 154 160 163 159 155 157 139 128 153 134 133 129 99 71 72 26 11 334 306 306 297 230 248 281 294 270 231 216 216 219 203 196 193 192
130 115 106 103 75 26 27 140 145 145 157 137 119 130 131 119 124 144 138 128 122 73 2 3 338 324 314 306 288 290 278 284 271 280 279 322 243 222 225 219 214 203 205
140 137 130 116 104 56 65 89 105 145 119 130 133 135 142 140 143 133 129 139 200 219 230 220 262 270 276 283 281 286 288 276 274 297 299 274 261 254 248 238 226 219 212
116 144 140 134 134 136 101 99 88 81 95 92 111 102 92 153 158 161 168 174 169 199 254 321 289 262 264 258 267 271 272 276 277 284 287 296 264 245 248 254 249 233 225
146 150 151 150 168 185 187 146 132 111 111 98 102 95 78 122 91 140 162 181 148 119 60 2 341 339 321 290 272 266 271 263 260 265 266 259 267 267 250 249 252 251 238
197 152 142 152 184 191 169 153 166 177 178 146 124 106 79 124 140 123 125 107 139 156 170 181 291 318 326 326 311 305 307 309 297 276 260 250 252 258 250 245 246 248 257
147 143 146 147 167 179 181 184 198 185 180 177 162 159 153 149 194 207 149 121 27 339 145 31 356 328 317 305 305 302 284 295 294 284 268 258 247 247 250 249 247 250 247
136 141 141 131 136 199 225 203 256 208 203 204 175 173 174 187 235 237 156 160 190 232 170 105 357 340 328 324 312 290 287 293 285 282 273 261 246 241 234 230 235 241 241
120 119 125 151 176 197 214 244 289 218 248 256 194 187 183 188 205 241 203 193 197 205 160 170 273 299 319 322 325 317 300 300 296 286 265 261 268 249 237 236 233 236 235
113 118 131 158 213 208 211 225 243 247 247 248 229 200 191 188 197 214 220 215 221 180 175 213 220 256 305 311 324 322 317 297 321 306 302 274 265 268 263 246 234 228 225
144 152 190 222 229 220 210 222 218 228 240 236 239 212 196 190 201 206 220 224 199 175 181 294 287 285 285 303 312 323 324 314 306 324 323 314 311 306 320 317 261 247 247
179 195 205 224 233 227 221 221 233 244 252 235 238 228 208 199 205 203 212 208 201 181 196 212 274 302 303 309 308 302 314 300 312 309 306 305 309 303 296 294 285 245 260
214 207 212 226 239 248 231 224 227 234 237 236 238 232 219 222 216 210 213 212 187 156 89 34 45 11 339 320 315 296 283 289 306 310 300 301 299 301 299 289 267 266 263
203 212 215 226 238 249 248 229 231 236 239 235 242 248 258 239 217 222 123 99 87 69 57 34 19 5 346 332 313 310 308 308 306 300 302 304 301 295 297 297 292 294 285
74 225 229 237 247 252 250 246 234 233 235 223 211 186 150 116 91 87 95 95 96 80 39 14 4 340 324 307 300 295 291 289 292 293 293 296 298 299 304 310 312 300 282